Location: Brentwood Heights
(34.0636°N, 118.4748°W)
Time: 05:44:30
(UTC+00:00)

Daily predictions for brighter satellites

Satellite Brightness Start Highest point End
(mag) Time Altitude Azimuth Time Altitude Azimuth Time Altitude Azimuth
CBERS-1 4.3 01:09:03 10° S 01:14:09 75° WSW 01:19:17 10° NNW
SL-16 R/B 3.7 01:09:11 10° N 01:15:02 44° WNW 01:20:51 10° SW
Thor Agena Rocket 3.6 01:12:04 10° SSE 01:17:18 82° ENE 01:22:32 10° NNW
Cosmos 1782 2.6 01:15:39 10° S 01:19:10 53° E 01:22:41 10° NNE
COSMO-SKYMED 1 4.0 01:16:52 10° NE 01:19:37 17° E 01:22:21 10° SE
H-2A R/B 2.6 01:20:19 10° SSW 01:21:43 16° SSE 01:23:51 10° ESE
Cosmos 2098 Rocket 2.7 01:22:20 10° SSE 01:25:36 51° E 01:29:26 10° NNE
Lacrosse 5 rocket 3.5 01:23:46 10° W 01:26:10 16° NW 01:28:31 10° N
CZ-2D R/B 2.9 01:23:25 10° SSE 01:26:25 45° ENE 01:29:26 10° N
Lacrosse 4 Rocket 3.8 01:24:44 10° WSW 01:27:37 18° WNW 01:30:29 10° NNW
Cosmos 1758 Rocket 3.8 01:26:02 10° N 01:30:09 43° E 01:34:12 10° SSE
IRS-P3 4.4 01:26:02 10° SE 01:31:03 45° ENE 01:36:05 10° N
NOSS 8 (E) 4.4 01:33:02 10° NNW 01:36:17 82° ENE 01:40:25 10° SSE
CENTAUR R/B 4.2 01:32:15 10° W 01:36:32 22° NW 01:41:32 10° N
CORIOLIS 4.4 01:32:56 10° S 01:38:16 75° WSW 01:43:36 10° NNW
Intercosmos 24 3.5 01:34:56 10° N 01:38:45 83° E 01:42:17 10° S
BREEZE M DEB (TANK) 4.2 01:37:36 10° W 01:39:39 17° NW 01:41:11 10° N
NOSS 8 (F) 4.5 01:38:09 10° NNW 01:41:24 87° NE 01:45:35 10° SSE
Cosmos 1503 Rocket 4.2 01:36:44 10° S 01:41:48 49° ESE 01:46:50 10° NNE
Cosmos 1743 2.8 01:40:03 10° NNE 01:43:02 34° E 01:46:01 10° SSE
IRIDIUM 104 4.4 01:38:41 10° N 01:43:47 53° E 01:48:51 10° SSE
Gbstr 26 Del rocket 3.4 01:41:36 10° SSW 01:45:32 39° SE 01:47:37 21° ENE
Meteor 1-20 Rocket 4.5 01:45:08 10° N 01:50:16 41° ENE 01:55:23 10° SSE
Cosmos 1697 Rocket 3.1 01:46:07 10° S 01:51:17 39° ESE 01:55:09 17° NE
IRIDIUM 114 4.3 01:47:44 10° N 01:52:56 67° E 01:58:05 10° S
Cosmos 1626 Rocket 3.7 01:51:32 10° N 01:55:51 73° W 02:00:06 10° S
Cosmos 1606 Rocket 3.8 01:52:30 10° SSE 01:56:39 46° E 02:00:24 13° NNE
Okean 1-7 Rocket 4.0 01:55:10 10° NNE 01:59:14 37° E 02:03:16 10° SSE
SJ-6F 4.3 01:56:50 10° SSE 02:00:44 86° WSW 02:04:43 10° NNW
Resurs 1-3 4.1 01:57:20 10° SE 02:01:11 33° ENE 02:05:04 10° N
IRIDIUM 103 4.2 01:56:52 10° N 02:02:06 83° E 02:07:19 10° S
ISS -0.4 02:01:11 10° W 02:02:49 13° SW 02:04:26 10° SSW
ATLAS 5 CENTAUR R/B 4.2 01:58:52 10° SSW 02:04:33 65° ESE 02:27:49 10° NE
Cosmos 1733 2.9 02:02:46 11° NNW 02:04:36 41° W 02:06:34 10° SSW
Cosmos 1777 Rocket 4.1 02:02:29 10° SSW 02:07:44 76° WNW 02:13:00 10° NNE
Cosmos 1570 Rocket 4.0 02:04:51 10° NNW 02:10:12 88° W 02:15:30 10° SSE
Cosmos 1655 Rocket 4.5 02:04:33 10° NNE 02:10:12 35° ENE 02:15:49 10° SE
Meteor 1-25 Rocket 4.4 02:07:47 10° N 02:13:28 52° E 02:19:03 10° SSE
ARIANE 6 FM1 Upper Stage 3.2 02:09:35 10° NW 02:13:31 57° WSW 02:17:30 10° SSE
SKYMED 2 4.2 02:13:14 10° N 02:17:29 56° WNW 02:21:43 10° SSW
NOSS 3-2 (C) 3.4 02:13:46 10° SW 02:18:30 60° WNW 02:22:24 18° NNE
Cosmos 1726 Rocket 3.5 02:20:26 10° S 02:25:00 74° E 02:27:31 27° NNE
SPOT 1/Viking Rocket 3.6 02:21:22 10° S 02:26:32 79° WSW 02:31:45 10° NNW
Cosmos 1461 3.0 02:23:23 10° SW 02:27:11 63° WNW 02:28:17 42° N
Helios 1A Rocket 2.7 02:28:43 47° NNW 02:29:29 65° WNW 02:32:50 10° SSW
Cosmos 2297 Rocket 2.1 02:24:47 10° NNW 02:30:24 61° ENE 02:35:59 10° SSE
NOAA 6 4.0 02:26:08 10° SSE 02:31:05 53° ENE 02:36:03 10° N
Cosmos 1602 Rocket 4.3 02:28:38 10° NNW 02:32:54 52° W 02:37:07 10° S
Cosmos 1933 4.2 02:31:52 10° SSW 02:35:33 45° W 02:38:04 18° NNW
NOSS 2-3 (E) 3.3 02:31:57 10° SSW 02:35:21 63° S 02:35:21 63° S
Cosmos 2151 4.0 02:35:10 10° NNW 02:39:07 44° W 02:43:03 10° SSW
Cosmos 2208 Rocket 4.4 02:35:32 10° NNW 02:40:38 63° WSW 02:45:44 10° S
NOSS 2-3 (D) 3.6 02:36:55 10° SSW 02:40:05 55° SSW 02:40:05 55° SSW
YAOGAN 1 2.6 02:37:14 10° S 02:41:28 73° WSW 02:45:43 10° NNW
Meteor 2-20 4.3 02:36:12 10° S 02:42:21 83° E 02:47:21 16° N
BREEZE M DEB (TANK) 3.5 02:37:18 10° NW 02:42:20 35° N 02:42:20 35° N
CZ-4C R/B 3.4 02:36:42 10° NNW 02:43:43 42° NE 02:44:13 41° ENE
Cosmos 1980 Rocket 2.4 02:46:02 10° S 02:50:51 54° SE 02:50:51 54° SE
PSLV R/B 3.8 02:47:42 10° S 02:55:18 12° NNW 02:55:38 10° NNW
COSMO-SKYMED 1 4.3 02:52:03 14° NNW 02:54:55 29° WNW 02:58:28 10° SW
Intelsat 5-1 Rocket 4.3 02:59:44 10° SW 03:01:05 14° S 03:01:05 14° S
Meteor 2-20 Rocket 4.4 02:58:58 10° S 03:05:24 89° E 03:06:42 60° N
USA 238 DEB 3.4 03:11:08 10° SSW 03:16:40 77° WSW 03:16:40 77° WSW
USA 238 3.4 03:11:13 10° SSW 03:16:43 76° WSW 03:16:43 76° WSW
Cosmos 2227 Rocket 4.3 03:15:23 10° NNW 03:16:24 16° NNW 03:16:24 16° NNW
ATLAS 2A CENTAUR R/B 4.0 03:11:13 10° W 03:21:06 32° SSW 03:21:47 31° SSW
CZ-4C R/B 4.3 04:24:47 10° NW 04:29:16 35° WNW 04:29:16 35° WNW
Atlas Centaur 2 4.4 11:09:32 27° SE 11:09:32 27° SE 11:13:09 10° ESE
CZ-3 R/B 3.8 11:08:45 68° SW 11:11:07 72° S 11:21:39 10° ESE
ATLAS CENTAUR Rocket 3.9 11:53:26 24° SE 11:53:26 24° SE 11:57:47 10° E
